星链-31881 (STARLINK-31881 )

导读

STARLINK-31881是由美国于2024年5月6日发射的Starlink星座卫星,Starlink是SpaceX打造的低轨卫星互联网项目,该卫星旨在为全球偏远地区、移动通信难以覆盖区域提供高速互联网接入服务,属于Starlink批量部署低轨卫星进程中的一员,进一步扩充了Starlink星座的在轨卫星规模,助力星座全球覆盖能力的完善。

基本信息
目录编号:
59659
目录名称:
STARLINK-31881
国际标识:
2024-084F
轨道中心:
EARTH
卫星名称:
星链-31881
卫星全名:
星链-31881 (STARLINK-31881 )
卫星状态:
在轨 (已飞行858 天)
发射日期:
2024-05-06 UTC
国别 :
美国 (US)
星等 :
--
该卫星已列入 空间交会检测服务 Space Conjunction Data Service (SCDS) ,当前飞行风险评估等级: 高风险
轨道信息
数据来源 国际轨道数据
星历时间: 2026-09-11T19:50:28+0800
8小时前
查看轨道信息
半长轴: 6861.199km
偏心率: 0.0001604
轨道倾角: 43.003°
近地点辐角 272.241°
升交点赤经 68.646°
平近点角 87.825°
近地点: 481.961km
远地点: 484.163km
周期: 94.267分钟
每日圈数: 15.275758
详细信息
固有亮度:
5
最大亮度:
1.5
卫星平台:
Starlink v2.0 mini
覆盖范围:
全球
运营商:
太空探索技术公司
运营商所在国:
美国
制造商(研发单位):
太空探索技术公司
制造商所在国:
美国
使用方式:
暂无
卫星简介
星链(Starlink)计划是由太空探索技术公司(SpaceX)提出的一个巨型低轨卫星互联网星座项目,计划在2019年至2024年间在太空搭建由约1.2万颗卫星组成的“星链”网络,其中1584颗将部署在地球上空550千米处的近地轨道,并从2020年开始工作。该卫星仍在工作。
2D轨道图
3D轨道图
轨道高度分析图
轨道倾角分析图
轨道综合分析图
查看轨道综合分析图
交会数据列表
事件ID 空间交会对象 最接近时刻(TCA) 交会距离 交会风险概率(CRP) 交会风险指数(CRI) 操作
CDM_260913-222505-965906-680521
2026-09-13T
22:25:38+0000
0.436 km
远距离
1.727747E-4 高风险 0.8
CDM_260913-203905-965906-401621
2026-09-13T
20:39:42+0000
0.779 km
远距离
2.356134E-5 中风险 0.62
CDM_260913-212705-965906-311921
2026-09-13T
21:27:08+0000
0.814 km
远距离
1.920754E-5 中风险 0.61
CDM_260913-023305-965906-730821
2026-09-13T
02:33:25+0000
0.994 km
远距离
1.493274E-5 中风险 0.58
CDM_260912-192905-965906-730821
2026-09-12T
19:29:43+0000
1.066 km
极远距离
1.173467E-5 中风险 0.56
CDM_260913-134705-965906-680521
2026-09-13T
13:47:47+0000
1.418 km
极远距离
4.600371E-6 低风险 0.48
CDM_260913-152105-965906-680521
2026-09-13T
15:21:57+0000
1.420 km
极远距离
4.577275E-6 低风险 0.48
CDM_260913-190505-965906-401621
2026-09-13T
19:05:32+0000
1.565 km
极远距离
2.317652E-6 低风险 0.42
CDM_260912-210305-965906-730821
2026-09-12T
21:03:52+0000
2.030 km
极远距离
1.603882E-6 低风险 0.39
CDM_260913-190505-965906-311921
2026-09-13T
19:05:55+0000
1.811 km
极远距离
1.461666E-6 低风险 0.38
与全量物体交会距离演化趋势
与全量物体交会风险概率演化趋势